Regional Weather Roundup
Issued by NWS

Home | Current Version | Previous Version | Text Only | Print | Product List | Glossary On
Versions: 1 2 3 4 5 6 7 8 9 10 11 12 13 14 15 16 17 18 19 20 21 22 23 24 25 26 27 28 29 30 31 32 33 34 35 36 37 38 39 40 41 42 43 44 45 46 47 48 49 50
000
ASHW40 PHFO 200332
RWRHI

WEATHER ROUNDUP FOR HAWAII
NATIONAL WEATHER SERVICE HONOLULU HI
500 PM HST THU APR 19 2018

THIS IS AN AUTOMATED REPORT THAT HAS NOT BEEN QUALITY CONTROLLED.

NOTE..."FAIR" INDICATES FEW OR NO CLOUDS BELOW 12,000 FEET WITH NO
SIGNIFICANT WEATHER AND/OR OBSTRUCTIONS TO VISIBILITY.

* - THESE SITES REPORT LIMITED FIELDS
# - BUOY DATA PROVIDED BY PACIFIC ISLANDS OCEAN OBSERVING SYSTEM.

HIZ001>004-200400-
KAUAI-NIIHAU-

CITY           SKY/WX    TMP DP  RH WIND       PRES   REMARKS
LIHUE APT      CLOUDY    76  69  79 NE18      30.05R
PORT ALLEN*      N/A     77 N/A N/A NE17G23     N/A
POIPU*           N/A     75 N/A N/A NE9G16      N/A
PRINCEVILLE*     N/A     75 N/A N/A E9G15       N/A
KOKOLE POINT*  NOT AVBL
MOLOAA DAIRY*    N/A     73  68  83 E3G9        N/A
WAIMEA HTS*    NOT AVBL
PUU OPAE*      NOT AVBL
PUU LUA*       NOT AVBL
MAKAHA RIDGE*    N/A     72  66  83 CALM        N/A
$$

HIZ005>011-200400-
OAHU-

CITY           SKY/WX    TMP DP  RH WIND       PRES   REMARKS
HONOLULU       CLOUDY    78  66  66 NE17G24   30.00R
KALAELOA       NOT AVBL
KANEOHE MCB    CLOUDY    76  70  82 E12G18    30.00R
WHEELER FIELD  CLOUDY    73  67  81 E5        30.02R
BELLOWS*         N/A    N/A N/A N/A NE17        N/A
KAHUKU*          N/A    N/A N/A N/A NE10G20     N/A
WHEELER*       NOT AVBL
WAIANAE HARBOR NOT AVBL
DILLINGHAM*    NOT AVBL
KAHUKU TRN*      N/A     73  72  94 W7G24       N/A
KAWAILOA*        N/A     70  64  83 E6G17       N/A
KII*             N/A     75  70  83 E17G25      N/A
MAKUA RANGE*     N/A     72  59  64 E9          N/A
OAHU FOREST NW NOT AVBL
SCHOFIELD BRK*   N/A     66  63  88 NW3         N/A
SCHOFIELD S*   NOT AVBL
WAIANAE VLY*   NOT AVBL
KUAOKALA*      NOT AVBL
HONOULIUULI*   NOT AVBL
MOKUOLOE IS*   NOT AVBL
PALEHUA*       NOT AVBL
WAIAWA PHB*    NOT AVBL
$$

HIZ012>013-200400-
MOLOKAI-

CITY           SKY/WX    TMP DP  RH WIND       PRES   REMARKS
MOLOKAI AIRPT  PTSUNNY   75  69  81 NE14G22   30.00F
KALAUPAPA      NOT AVBL
MAKAPULAPAI*     N/A     73  68  83 E17G25      N/A
MOLOKAI 1*     NOT AVBL
PUU ALII*        N/A     60  60  99 N2G10       N/A
$$

HIZ016-200400-
KAHOOLAWE-

CITY           SKY/WX    TMP DP  RH WIND       PRES   REMARKS
KAHOOLAWE*     NOT AVBL
HAKIOAWA*        N/A     72  67  84 MISG      30.41S
HONOKANAIA*    NOT AVBL
KANELOA*         N/A     75  68  78 E20G32    30.04F
KEALIALALO*    NOT AVBL
LUA MAKIKA*    NOT AVBL
$$

HIZ014>015-200400-
LANAI-

CITY           SKY/WX    TMP DP  RH WIND       PRES   REMARKS
LANAI CITY     FAIR      71  66  84 NE17      30.03F
LANAI 1*       NOT AVBL
$$

HIZ017>028-200400-
MAUI-

CITY           SKY/WX    TMP DP  RH WIND       PRES   REMARKS
KAHULUI        CLOUDY    76  70  82 NE17G23   29.98R
KAPALUA-W MAUI PTSUNNY   75  70  83 NE12      30.00F
HANA AIRPORT   NOT AVBL
HANA*            N/A     77 N/A N/A E8          N/A
HALEAKALA SUMM   N/A     43  36  75 NE8         N/A
MAALAEA BAY*     N/A     77 N/A N/A N17G28      N/A
HALEAKALA*     NOT AVBL
KAUPO GAP*     NOT AVBL
KULA 1*          N/A     57  55  93 NW3         N/A
$$

HIZ023>026-200400-
BIG ISLAND OF HAWAII COAST AND LOWER SLOPES-

CITY           SKY/WX    TMP DP  RH WIND       PRES   REMARKS
KAILUA KONA    CLOUDY    79  67  66 S6        29.95S
HILO           CLOUDY    78  69  73 E10       30.00S
HONOKAA*         N/A     70 N/A N/A VRB1        N/A
KAWAIHAE MWT*    N/A     81 N/A N/A SW2         N/A
KAWAIHAE*        N/A     79 N/A N/A NW1       29.95S
SOUTH POINT*     N/A     72 N/A N/A N20G28      N/A
UPOLU AIRPORT* NOT AVBL
KAMUELA*       MOCLDY    64  63  94 NE12G24   30.09R
HAKALAU*         N/A     56  54  92 SE3G10      N/A
KALOKO-HONOKO*   N/A     79  68  69 W3        29.95S
PALI 2*          N/A    N/A N/A N/A NE15        N/A
KEALAKOMO*       N/A     81  66  61 NE15G24     N/A
KAUPULEHU*     NOT AVBL
KAPAPALA*        N/A     71  65  82 E8G18       N/A
LOWER KAHUKU*    N/A     64  61  88 N3G12       N/A
PUHE CS*         N/A     79  68  69 SW2         N/A
PUHO CS*         N/A     79  69  70 NW3         N/A
PTA KEAMUKU*     N/A     64  61  88 NE14G22     N/A
WAIKOLOA*      NOT AVBL
$$

HIZ027>028-200400-
BIG ISLAND OF HAWAII INTERIOR AND SUMMMITS-

CITY           SKY/WX    TMP DP  RH WIND       PRES   REMARKS
BRADSHAW FIELD NOT AVBL
MK VISITOR CEN   N/A     50  25  37 SE3         N/A
MAUNA KEA*       N/A     32  19  59 NE7         N/A  WCI  26
MAUNA LOA*       N/A     39  32  75 MISG        N/A
MAUNA LOA 1*   NOT AVBL
PTA KIPUKA*      N/A     61  57  88 SE3G9       N/A
PTA RANGE 17*    N/A     61  57  88 E3G9        N/A
PTA WEST*        N/A    N/A N/A N/A NW6G13      N/A
NENE CABIN*      N/A     54  54 100 E5G12       N/A
AHUMOA*        NOT AVBL
PTA PORTABLE*  NOT AVBL
PUU MALI*        N/A     59  55  88 N5G10       N/A
$$

HIC003-200400-
NORTHWEST ISLANDS-

CITY           SKY/WX    TMP DP  RH WIND       PRES   REMARKS
MIDWAY ISLAND  CLOUDY    72  64  78 E12       30.14F
MIDWAY NOS*      N/A     68 N/A N/A MISG      30.12S
FRENCH FRIGATE NOT AVBL
$$

PHZ110>124-180-200400-
BUOY REPORTS

STATION/POSITION TIME  TEMP    WIND        PRES    WAVE   SWELL
                       AIR SEA DIR/SP/G            HT/PER HT/DIR
                 (UTC) (F)     (DEG/KT/KT) (MB)    (FT/S) (FT/D)
BUOY 51001       0310   79 81   80/ 12/ 17 1008.4
BUOY 51101       0250   73 73   70/ 14/ 17 1018.7S   7/10   5
BUOY 51100       NOT AVBL
BUOY 51002       0310   79 78   70/ 17/ 21 1013.3
BUOY 51003       0250   76 79   80/ 17/ 21 1014.0F   7/ 8   3/120
BUOY 51004       0310   78 79   70/ 17/ 23   N/A
WAIMEA BAY#      NOT AVBL
MOKAPU POINT#    0304      76                N/A     8/ 9   2/ 40
LANAI#           NOT AVBL
BARBERS PT 2#    NOT AVBL
PAUWELA#         0300      77                N/A     7/ 9   2/320
HILO#            0257      77                N/A     6/ 9   2/ 90
KANEOHE BAY#     NOT AVBL
KANEOHE BAY 2#   NOT AVBL
HANALEI#         0252      76                N/A     7/ 9   2/330
KAHULUI HARBOR   0300   75 76   40/ 13/ 17 1015.4
HONOLULU HARBOR  0300   77 78  110/  3/  6 1015.4
PEARL HARBOR#    0300      77                N/A     3/13   2/170
KILO NALU        NOT AVBL
HILO HARBOR      0300   80 76   70/  3/  5 1015.7
MOKUOLOE         0236   76 77   90/ 11/ 14 1016.2F
NAWILIWILI       0300   74      30/ 11/ 15 1017.2
WHOTS BUOY       NOT AVBL
BUOY 51028       NOT AVBL
$$

......................KEY........................................
  SKY/WX - SKY CONDITIONS/PRESENT WEATHER
  TMP    - TEMPERATURE IN FAHRENHEIT
  DWPT   - DEWPOINT IN FAHRENHEIT
  RH     - RELATIVE HUMIDITY IN PERCENT
  WIND   - DIRECTION AND SPEED /MPH FOR ISLANDS...KTS FOR BUOYS/
  PRES   - MEAN SEA LEVEL PRESSURE IN INCHES OF HG
  VSB    - VISIBILITY IN MILES
  HX     - HEAT INDEX
  WCI    - WIND CHILL INDEX
  VRB    - VARIABLE WIND DIRECTION
  N/A    - NOT AVAILABLE



USA.gov is the U.S. government's official web portal to all federal, state and local government web resources and services.